Aérodrome :
LOGIN :

S'inscrire | Disclaimer

   EN    FR    IT 

 










Légende :    VFR   VFR Marginal   IFR   IFR Intensif   IFR Très Intensif
Visi : 
Plafond : 
>= 8 km
>= 3000ft
5 à 8 km
1000 à 3000 ft
1500m à 5 km
500 à 1000 ft
800 à 1500m
200 à 500 ft
< 800m
< 200 ft
Symboles :   Orages  Brouillard  Fortes neiges  Fortes précipitations  Vent > 20 kt
SIGMETs :   Divers  Orages  Givrage  Turbulence  Onde Orograph.  Cendres Volcan.







- Altitude de l'aérodrome : 472 ft
- Code IATA : GME


UMGG - Gomel

DERNIER METAR :
  • 151730Z VRB01MPS 6000 NSC 12/07 Q1030 R28/D NOSIG

METARs EXPIRÉS :
  • 151700Z VRB01MPS 6000 NSC 12/07 Q1030 R28/D NOSIG
  • 151630Z VRB01MPS 6000 NSC 14/07 Q1030 R28/CLRD// NOSIG
  • 151600Z VRB01MPS 6000 NSC 14/07 Q1030 R28/CLRD// NOSIG
  • 151530Z VRB01MPS CAVOK 15/07 Q1030 R28/D NOSIG
  • 151500Z VRB01MPS CAVOK 15/07 Q1030 R28/D NOSIG
  • 151430Z VRB01MPS CAVOK 18/06 Q1030 R28/D NOSIG

TAF TAF UMGG
Valide du 15 à 18h jusqu'au 16 à 18h UTC


151700Z 1518/1618 VRB02MPS 1400 BR SCT004
TEMPO 1518/1607 0300 FG VV002
FM160700 17005MPS 6000 SCT015
FM161600 VRB02MPS 1200 BCFG BR SCT004
Pas de NOTAMs connus pour ce terrain.



MET'MAP, la Météo Aéronautique d'un coup d'oeil ! - Copyright ORBIFLY Décembre 2007 - Disclaimer

ORBIFLY MET'MAP TEAM :

Programmation & Développement : Alexandra Zaïnal
Conception & Développement : Baudouin d'Aumeries
Co-Programmation & Développement : Marc-Olivier Méhu
Soutien technique & logistique : Manuel Goepfert

Contact : metmap@orbifly.com




SOURCES & CREDITS :

   NOAA